Location: Niedergestelen
(46.3129°N, 7.7822°E)
Time: 21:12:47
(UTC+00:00)

CANX 3A (UNIBRITE) - Visible Passes

Search period start: 24 June 2021 00:00
Search period end: 04 July 2021 00:00
Orbit: 769 x 781 km, 98.4° (Epoch: 24 June)

Date Brightness Start Highest point End Pass type
(mag) Time Alt. Az. Time Alt. Az. Time Alt. Az.
24 Jun ? 20:43:08 10° NNW 20:45:18 13° NW 20:47:28 10° W visible
25 Jun ? 20:07:49 10° N 20:11:48 23° WNW 20:15:45 10° WSW visible
27 Jun ? 20:40:17 10° NNW 20:42:39 13° NW 20:45:02 10° W visible
28 Jun ? 20:05:05 10° N 20:09:08 24° WNW 20:13:11 10° WSW visible
30 Jun ? 20:37:27 10° NNW 20:40:01 14° NW 20:42:33 10° W visible
01 Jul ? 20:02:20 10° N 20:06:28 25° WNW 20:10:36 10° WSW visible
03 Jul ? 20:34:38 10° NNW 20:37:21 15° NW 20:40:04 10° W visible
